Wind_Speed
20 20 18 18 17 14 11 10 12 12 10 8 8 9 10 10 8 6 4 3 3 6 8 10 10 9 11 10 9 8 9 11 12 12 14 13 13 12 9 8 7 10 16 12 9 9 5 3 7 13 16 15 14 14 13 11 12 16 17 15 14 12 9
18 17 16 16 14 12 12 13 15 14 11 8 7 8 9 9 9 8 8 6 2 6 9 9 8 8 11 11 10 10 8 9 10 10 11 12 12 12 11 11 11 12 13 11 12 12 9 5 3 4 10 13 11 12 13 12 12 16 17 14 12 10 8
16 15 15 15 13 13 14 14 14 13 11 9 8 9 10 10 9 8 9 9 7 7 10 9 8 8 10 12 12 11 9 9 10 8 9 11 11 12 14 16 15 14 12 9 10 11 11 9 5 4 9 11 9 10 13 15 16 16 15 12 9 9 9
17 16 15 14 12 11 13 13 12 12 11 9 8 8 9 10 9 7 7 9 10 11 11 10 8 8 10 12 12 12 12 12 11 9 9 10 11 12 14 17 18 19 16 11 14 14 11 10 7 5 9 12 10 10 12 16 18 15 13 11 8 8 9
18 16 15 15 12 11 12 12 12 13 11 9 7 7 7 8 9 8 9 10 11 11 11 9 7 7 8 11 13 13 12 12 11 11 10 10 11 13 15 15 16 18 17 15 17 17 16 19 16 9 11 12 9 9 12 16 17 15 13 10 8 8 9
17 16 15 15 14 13 13 12 12 12 12 11 10 8 8 8 8 9 10 11 11 10 8 7 9 10 11 12 14 13 12 13 13 13 13 11 10 12 13 13 12 13 12 10 14 17 20 25 22 14 13 13 10 11 14 18 18 14 12 10 9 7 8
17 16 15 15 15 13 12 12 12 12 13 13 12 10 10 9 9 10 9 10 11 11 8 8 10 12 12 12 13 14 14 15 15 14 13 12 11 11 12 11 10 9 7 6 11 17 20 25 24 18 14 10 11 12 13 16 18 15 12 12 9 7 7
17 16 15 14 13 13 10 11 12 13 15 15 13 12 12 12 12 11 10 10 11 10 9 12 14 15 14 15 16 16 16 15 15 15 14 14 15 15 15 15 13 11 10 10 10 13 20 27 27 25 21 11 5 6 7 10 14 15 15 13 7 5 7
17 16 15 13 13 12 10 12 15 16 16 15 13 11 11 11 11 12 12 11 10 10 11 15 17 17 17 18 18 17 16 15 15 16 16 16 16 16 16 15 15 15 13 15 17 15 19 26 24 24 26 20 9 3 3 5 7 10 15 14 8 4 6
17 16 15 14 13 12 11 14 16 16 14 13 10 9 9 10 11 12 12 10 10 11 14 17 18 17 16 16 17 17 16 16 17 17 15 15 15 15 14 14 15 16 16 18 20 19 19 19 16 14 17 25 21 9 3 3 3 6 10 11 9 7 5
17 16 15 14 13 13 13 15 15 14 13 12 11 10 10 11 12 12 11 10 11 12 13 15 16 15 15 16 17 16 16 16 17 16 14 14 15 14 13 13 14 15 16 17 18 18 18 16 17 16 12 20 26 18 11 6 2 5 10 10 9 10 8
17 17 16 15 14 13 14 14 14 13 13 13 13 12 12 12 12 12 12 11 12 12 12 14 15 14 15 17 17 17 16 17 17 16 16 15 15 14 13 12 13 14 14 15 15 17 16 14 13 14 13 13 21 22 21 14 4 4 10 11 10 10 9
18 18 17 16 14 14 14 13 13 13 13 13 12 12 12 12 12 13 12 12 13 13 12 13 13 13 15 17 17 17 17 17 17 18 17 15 15 15 15 15 14 14 13 14 15 16 16 14 12 12 13 14 17 21 21 18 10 6 9 11 11 10 9
17 17 16 16 15 14 13 13 13 13 13 13 13 13 12 12 13 13 12 13 14 13 12 12 13 14 16 16 16 17 18 18 19 19 17 16 17 17 16 16 15 14 13 13 13 12 12 11 10 12 15 16 17 15 15 18 16 10 9 10 10 10 8
16 15 15 15 14 14 14 13 13 13 13 14 13 12 12 12 12 12 13 14 13 13 13 13 14 15 16 17 17 17 18 18 18 18 17 16 15 15 15 16 15 13 12 12 11 9 9 7 7 10 15 16 16 13 13 17 18 13 10 11 10 9 7
14 14 15 15 14 14 14 13 13 13 14 15 13 12 12 11 12 13 13 13 13 14 14 13 14 16 15 15 16 17 17 17 16 17 17 16 14 13 13 14 13 11 10 10 10 10 10 9 7 10 14 13 13 13 12 13 14 13 13 12 10 9 7
14 14 15 14 12 12 12 13 14 13 13 14 13 12 11 10 12 14 14 13 14 14 13 12 15 16 13 12 16 19 18 16 15 15 16 15 13 11 10 11 10 10 9 9 9 8 8 8 8 9 11 9 9 10 11 11 10 10 12 13 12 12 9
15 15 15 12 10 9 9 11 13 12 12 14 12 11 11 9 11 14 13 13 14 14 12 12 14 15 12 12 16 20 18 16 14 13 14 13 11 10 8 8 8 8 8 8 8 6 5 5 7 8 7 7 6 8 10 11 10 9 10 12 12 13 11
17 15 14 12 10 8 8 10 11 11 11 11 9 9 12 10 10 12 13 14 15 14 12 12 13 15 13 11 14 16 16 15 13 11 12 12 11 9 8 7 6 6 8 8 7 6 5 5 6 8 8 7 8 8 8 8 7 8 8 10 12 13 12
16 15 13 13 11 10 9 9 10 11 11 9 9 10 11 11 11 11 12 13 14 14 13 12 12 14 13 12 13 14 15 15 11 10 12 12 10 10 10 9 8 6 7 8 7 6 6 6 5 5 7 8 8 8 7 5 5 5 6 8 11 11 10
15 15 13 11 10 11 11 11 9 10 10 9 11 13 11 11 12 12 12 13 12 12 13 13 13 14 13 13 13 13 14 14 12 12 12 12 12 12 11 12 11 10 9 10 8 7 6 6 5 3 4 6 7 7 5 4 4 3 3 3 5 6 6
11 11 11 10 9 9 12 12 11 12 11 9 12 15 13 11 13 13 12 13 13 13 13 13 14 15 14 15 15 14 14 15 14 13 13 13 14 15 14 14 14 13 12 12 11 9 8 7 7 6 4 4 5 5 4 4 5 3 2 2 2 2 4
8 9 10 10 9 8 9 11 10 11 10 7 9 15 14 12 13 13 13 13 14 16 15 14 15 16 15 15 16 16 15 16 17 16 17 17 16 17 17 16 16 15 13 14 13 12 11 10 9 9 8 7 6 6 6 6 7 6 5 4 2 3 3
7 9 9 8 7 6 6 8 7 7 8 5 4 9 11 11 11 11 11 12 13 16 18 17 17 17 16 16 17 18 18 19 19 19 20 20 19 19 19 17 17 17 15 15 15 14 14 13 13 13 12 11 10 10 10 9 9 9 8 7 4 2 1
4 5 7 6 4 3 4 5 5 6 8 7 6 6 7 8 9 9 10 11 11 11 15 19 20 20 18 18 19 21 21 22 22 21 21 21 21 20 20 19 18 18 17 17 17 16 16 16 15 15 15 15 15 15 14 12 11 10 10 10 7 4 4
7 5 3 3 2 2 3 4 4 5 7 9 10 11 10 10 10 10 11 12 12 12 13 15 19 21 21 22 23 24 24 24 24 24 24 23 23 22 22 21 20 19 19 18 18 18 18 17 16 15 14 14 15 14 14 14 13 11 10 10 8 6 6
13 11 9 5 2 1 1 3 4 6 7 9 11 12 13 13 13 12 11 10 11 13 13 12 16 19 20 22 23 24 25 25 25 26 26 27 26 24 24 24 23 22 21 20 18 17 17 17 16 13 12 12 12 12 12 13 13 12 11 10 8 6 6
18 16 14 13 10 7 6 6 5 5 7 8 9 10 11 13 14 15 14 13 12 13 13 12 14 17 20 21 21 22 25 26 26 26 26 25 24 22 21 22 22 22 21 20 19 17 17 17 16 13 12 11 11 10 10 10 10 11 11 11 9 8 6
20 18 17 16 14 12 11 11 10 9 7 7 9 10 11 12 13 14 16 16 17 17 17 16 16 17 20 21 20 21 24 26 27 27 25 24 23 22 21 20 21 22 21 19 19 18 17 16 15 14 13 12 11 9 8 7 7 7 8 8 7 7 7
19 18 17 17 16 15 14 12 12 12 11 12 11 12 13 14 14 14 15 16 18 20 21 20 21 21 21 22 23 23 24 27 28 28 26 25 24 24 24 23 23 22 20 19 17 15 15 17 16 15 14 13 11 9 7 6 7 7 7 7 7 7 7
14 13 13 14 15 15 15 14 14 14 14 15 15 15 16 17 17 17 17 17 18 20 21 21 22 23 23 24 25 25 26 28 29 28 27 26 25 23 23 22 22 21 21 21 18 16 18 20 18 16 15 14 12 10 9 9 10 10 9 8 7 6 4
11 11 12 13 13 14 15 16 16 16 16 17 18 18 18 19 20 19 19 20 20 19 20 20 20 21 22 23 24 25 26 29 29 28 27 28 27 24 22 23 22 22 24 25 22 21 24 24 20 18 17 15 14 12 11 11 10 10 9 7 6 4 2
12 12 13 14 14 15 15 16 17 18 19 19 19 20 20 21 22 20 19 19 19 19 20 20 20 20 21 21 22 24 26 29 30 29 29 30 28 24 23 25 25 26 28 28 25 25 27 25 21 20 18 17 16 13 11 11 11 10 8 6 4 2 2
14 14 15 15 15 16 16 17 18 19 20 20 21 21 22 23 24 24 22 20 20 20 20 20 20 21 22 22 23 24 27 29 30 30 30 30 27 24 23 24 25 26 26 24 23 24 25 23 21 20 19 17 14 13 13 13 13 10 7 5 4 4 3
17 17 17 17 17 17 17 18 18 19 20 20 21 22 23 24 25 26 26 25 23 23 22 22 22 22 23 24 24 25 27 29 30 31 30 28 25 22 21 21 21 21 21 19 18 18 18 19 20 21 20 16 14 13 13 13 12 10 7 6 5 4 3
18 19 19 19 19 19 19 19 20 20 21 21 22 23 23 23 24 26 27 28 27 26 26 26 25 25 25 26 26 26 26 27 29 30 29 27 25 23 20 18 18 17 17 17 17 14 13 16 20 20 18 15 15 15 14 12 11 9 8 7 6 4 3
19 19 19 19 19 20 20 21 22 21 21 22 23 23 23 23 23 25 26 28 29 29 30 31 29 28 27 27 26 25 24 25 28 28 25 24 25 24 23 22 20 17 16 17 17 16 15 16 18 18 17 16 16 15 13 10 9 9 8 7 5 4 5
Wind_Direction
116 112 117 119 118 116 113 121 127 116 104 103 99 98 100 97 93 86 78 83 136 159 149 156 175 175 172 181 190 196 192 184 184 179 177 180 175 175 178 158 131 148 163 162 145 137 123 81 82 91 103 110 111 116 122 125 121 114 113 116 119 118 99
121 119 120 120 118 118 118 125 129 121 115 114 111 116 119 116 114 101 88 76 94 176 158 143 152 162 169 173 173 183 190 180 184 184 177 179 177 175 173 155 140 146 154 155 147 136 128 128 111 102 113 110 110 117 121 132 137 125 121 124 123 114 88
129 129 127 126 124 121 120 122 126 125 122 119 108 115 121 118 121 118 101 85 88 147 162 151 144 151 171 179 172 170 177 177 182 184 165 164 173 174 167 155 151 153 146 148 159 146 130 128 130 143 137 130 136 136 124 129 141 139 131 130 122 105 82
140 139 135 135 134 130 125 121 127 133 134 130 111 108 117 110 104 114 114 98 95 116 139 148 144 142 160 174 165 152 161 170 172 171 153 151 166 171 165 161 165 166 161 167 176 164 142 136 136 141 149 150 156 161 141 127 137 145 137 129 113 89 74
147 146 141 142 143 141 136 131 133 135 136 139 126 104 109 110 104 111 116 111 106 113 125 134 139 140 147 157 152 143 152 160 157 157 150 145 157 162 164 169 173 175 174 177 179 171 158 154 151 151 164 162 157 171 158 133 131 137 133 122 107 88 72
149 147 147 150 150 147 146 145 144 140 135 133 129 117 114 117 116 120 119 112 109 111 118 132 139 140 138 141 147 149 152 149 144 146 145 142 148 154 162 169 171 177 181 186 189 179 162 158 155 153 164 161 144 145 143 133 129 128 128 127 113 93 70
149 149 153 156 154 151 153 155 154 148 137 128 127 129 128 122 116 120 124 118 114 109 112 134 143 144 144 141 144 147 144 143 139 136 133 131 135 139 147 149 146 152 142 138 184 185 168 161 158 154 158 156 146 143 133 132 133 127 128 127 109 83 65
150 151 152 154 152 149 153 161 158 149 138 130 129 132 130 126 119 117 122 126 125 117 117 131 132 133 137 133 134 136 137 139 135 129 125 123 125 124 124 124 120 115 97 97 137 172 171 166 162 159 157 147 136 144 130 131 133 129 132 130 109 81 79
151 149 146 145 144 146 150 153 150 144 140 135 133 135 135 134 129 125 125 131 132 121 123 133 130 128 132 131 133 135 136 139 133 125 122 119 121 120 117 118 114 104 96 101 111 124 146 157 160 162 162 158 148 131 118 117 115 126 136 134 124 111 94
156 152 148 142 142 147 148 145 143 140 141 140 138 141 142 141 140 138 134 133 133 121 121 132 133 134 138 139 140 140 138 141 135 126 122 118 122 125 120 118 114 106 102 104 105 103 110 121 123 126 154 163 157 144 126 117 96 124 139 140 140 146 125
160 156 152 148 148 146 142 142 142 138 137 137 136 138 140 142 143 143 140 136 135 127 124 133 136 136 138 138 139 139 138 138 132 125 123 121 122 125 124 121 116 111 106 102 100 96 93 96 98 90 110 156 159 149 138 133 100 114 127 134 145 149 142
161 159 157 156 153 146 142 143 142 139 138 140 142 142 142 142 141 143 145 142 141 137 135 140 142 141 139 136 135 135 135 135 129 122 121 124 126 128 128 125 121 115 109 106 99 95 94 95 100 91 89 135 157 152 139 129 111 118 125 125 134 143 146
163 164 164 162 157 149 148 149 145 144 145 147 149 146 145 146 146 149 152 148 145 143 144 148 150 149 144 141 141 142 142 141 134 126 124 126 130 131 126 120 119 116 114 111 103 99 98 97 102 103 96 112 138 145 139 128 120 124 127 127 133 139 145
167 167 167 167 162 156 156 155 153 151 149 150 150 148 150 151 151 154 156 153 149 147 149 152 152 151 148 148 150 150 148 144 137 132 127 128 131 129 124 121 120 119 116 113 111 110 105 103 111 119 113 112 122 136 144 137 132 130 129 138 144 140 143
171 170 169 169 166 164 163 159 157 155 152 152 152 155 158 156 156 157 154 155 155 153 154 155 155 154 152 153 153 151 149 145 141 139 135 134 137 133 125 121 121 123 118 115 118 111 100 107 127 132 127 121 119 132 147 144 139 138 142 151 152 143 145
175 170 168 169 169 169 166 160 156 154 155 157 160 165 165 165 167 162 158 159 159 157 158 159 160 159 157 161 162 156 152 149 146 142 136 134 139 142 135 126 126 128 125 122 118 104 95 102 115 132 135 126 120 127 137 140 138 142 155 162 163 162 158
170 164 163 166 170 173 172 167 160 157 163 164 165 169 171 177 179 170 164 163 160 160 162 158 161 162 153 154 161 156 151 149 146 143 141 136 139 149 147 143 142 139 136 134 126 112 106 100 96 121 141 139 130 125 123 135 147 156 167 169 171 182 186
164 161 163 168 172 174 175 174 167 164 166 167 170 177 176 181 186 178 170 166 164 164 162 159 163 164 149 138 151 155 153 150 145 149 155 151 151 156 152 149 155 155 153 145 130 119 119 108 90 99 129 145 149 134 123 136 154 165 173 175 177 189 198
165 164 167 172 173 168 168 176 174 167 163 169 184 188 180 182 185 179 175 172 171 168 163 163 166 164 158 149 151 155 155 153 152 159 167 165 163 164 158 154 154 160 164 157 146 138 138 140 111 92 106 132 149 147 134 135 145 148 158 166 173 186 194
166 168 170 173 176 175 170 172 174 171 171 184 199 189 184 192 190 184 183 178 176 175 170 169 168 166 168 165 160 160 160 162 165 165 163 165 164 162 165 173 170 167 170 165 165 169 158 160 156 109 106 128 144 148 145 146 146 137 135 148 164 181 192
165 166 165 164 170 179 180 178 181 189 198 214 213 196 190 200 199 196 196 189 187 189 183 180 181 178 175 171 168 170 172 174 175 170 167 170 172 169 176 185 182 178 179 175 180 198 199 192 194 177 139 140 148 151 156 173 177 151 125 150 173 194 218
163 173 177 174 171 176 183 186 196 210 222 238 224 204 195 201 203 203 204 202 200 203 202 198 195 194 191 185 181 181 185 186 183 184 188 188 183 183 189 193 191 187 186 187 191 200 210 218 222 224 224 202 185 182 184 198 202 197 212 238 247 284 286
157 169 176 179 181 182 187 191 202 216 225 238 219 203 197 201 207 209 208 210 211 211 214 210 204 204 205 201 194 191 192 193 193 197 199 196 194 195 197 201 203 201 199 199 203 203 206 216 222 227 238 244 240 229 220 219 221 224 241 261 296 335 321
161 164 166 170 178 188 193 196 206 217 219 226 211 199 199 203 212 217 214 218 222 220 219 216 212 211 211 207 201 199 200 200 202 207 205 203 204 203 202 205 207 209 209 207 208 211 213 215 218 222 229 233 239 239 231 227 224 224 234 245 255 289 197
134 151 165 167 167 188 203 204 218 229 230 240 246 238 229 219 222 235 237 238 243 238 227 219 215 214 212 209 207 208 209 207 208 213 213 212 214 212 208 208 209 211 214 215 215 216 217 218 221 225 228 228 232 235 233 232 230 225 226 225 220 210 177
75 78 111 148 162 200 231 240 246 248 247 253 256 259 262 251 238 239 246 251 256 257 249 232 220 215 211 211 213 214 214 214 216 220 221 222 223 219 215 214 213 214 217 221 224 223 224 226 226 227 230 232 235 235 232 232 231 226 217 204 192 182 175
52 50 52 51 62 144 282 295 277 256 252 261 265 265 268 265 256 246 245 251 251 249 252 245 232 223 215 213 215 215 217 219 221 224 226 227 226 222 219 219 217 217 219 222 222 222 225 224 222 226 232 231 232 232 231 230 228 225 218 209 204 198 189
31 32 35 36 42 48 39 21 354 304 274 272 277 279 278 274 267 257 252 254 255 250 245 241 238 233 226 221 218 217 219 219 219 221 222 223 224 221 218 220 222 223 225 223 218 216 220 221 222 225 225 220 221 226 228 228 227 227 227 226 227 221 204
17 12 10 13 19 22 24 24 17 3 338 312 298 293 293 288 280 271 262 258 260 260 255 250 248 243 236 232 230 228 225 223 223 224 224 228 233 232 229 232 236 235 229 221 217 218 222 224 222 214 208 211 218 218 214 211 210 218 223 220 216 207 195
9 5 1 360 357 355 354 352 351 353 351 342 329 315 306 300 291 282 274 268 265 263 260 257 256 254 249 244 241 239 235 231 230 231 232 235 238 238 238 238 236 233 227 221 225 234 233 226 217 205 199 203 206 199 194 190 183 183 186 182 179 182 186
5 3 1 357 351 345 341 336 330 330 331 330 327 322 319 314 304 292 283 279 274 267 263 261 259 258 257 252 249 247 243 236 231 230 230 230 231 233 233 229 227 232 236 234 240 250 241 225 213 204 201 198 193 189 190 188 181 178 178 178 183 193 211
358 355 351 347 342 335 330 326 320 316 316 316 313 310 309 310 309 303 292 285 279 272 268 265 262 258 255 253 252 251 245 237 231 230 230 231 232 234 232 229 231 243 251 248 246 244 234 222 211 208 205 196 190 190 188 186 184 182 180 181 187 196 220
348 346 343 339 337 332 327 323 318 314 313 311 308 304 301 300 301 302 298 290 281 274 269 266 263 259 255 251 250 247 242 236 233 234 235 235 235 236 237 239 243 250 252 247 240 232 222 213 208 207 202 194 191 185 173 169 169 167 163 158 148 119 75
351 347 343 337 332 329 326 324 322 320 317 313 307 302 299 296 295 295 294 288 278 270 268 267 264 262 257 249 245 242 240 237 237 237 236 234 235 237 241 245 246 246 240 229 219 217 212 206 203 201 196 194 191 178 166 160 155 149 144 131 114 98 76
348 345 344 342 337 332 328 324 322 321 322 320 315 308 301 297 295 292 289 286 277 269 267 266 264 263 258 248 242 240 239 239 240 238 234 233 235 236 236 235 231 226 216 202 200 208 208 202 196 191 189 191 186 174 166 157 150 150 149 137 130 123 94
343 342 341 340 337 334 331 327 323 322 321 322 323 320 312 305 300 295 292 290 283 272 266 263 262 261 256 249 243 240 239 238 236 233 231 230 227 223 216 206 196 188 183 182 190 198 197 190 184 178 176 176 171 165 161 157 156 161 160 154 151 134 92
339 338 336 335 332 330 329 326 323 323 321 321 322 324 323 319 310 302 298 297 292 282 272 263 257 255 255 253 246 237 234 231 227 225 224 222 218 209 197 186 180 176 173 175 179 179 175 169 164 160 159 159 158 160 163 167 171 171 167 166 158 126 109
Height
818 820 822 823 824 825 826 827 828 829 830 830 830 831 831 832 832 833 833 834 835 835 836 837 838 839 840 841 841 842 843 844 845 846 847 848 850 851 853 854 855 855 855 856 857 859 861 865 865 865 865 866 866 866 866 866 866 866 866 867 867 867 867
819 820 822 823 824 825 825 827 828 829 830 831 831 831 831 832 833 833 834 834 834 835 836 837 838 839 840 841 841 841 842 843 844 846 847 848 849 850 852 853 855 855 856 857 858 858 859 863 866 865 865 866 866 867 867 867 867 868 867 868 868 868 868
819 820 822 823 824 825 826 827 828 829 830 831 831 831 832 832 833 834 834 835 834 835 837 838 838 839 840 841 841 842 842 843 844 845 847 848 848 850 851 852 853 854 855 856 858 858 859 861 863 864 865 866 866 867 868 868 868 868 868 869 869 869 869
818 820 822 823 824 825 826 826 827 828 829 830 831 831 832 832 833 834 834 835 835 835 837 838 838 839 840 841 841 842 843 844 844 845 846 847 848 849 850 851 852 853 853 855 856 857 858 859 861 864 865 865 867 867 868 869 869 869 869 869 869 869 870
818 820 822 824 825 825 826 827 827 828 829 830 831 832 832 833 833 834 835 835 836 837 837 838 839 839 840 841 841 842 844 844 845 845 846 847 847 848 850 851 852 852 853 854 855 856 857 858 860 862 864 865 866 867 869 870 869 869 869 870 870 870 870
819 821 823 824 825 826 826 827 827 828 829 830 831 832 833 833 833 834 835 836 837 837 838 838 839 840 840 841 842 843 844 844 845 846 847 847 848 849 850 851 852 853 854 854 854 855 857 858 859 860 862 864 865 867 868 869 870 871 871 870 870 871 871
820 822 823 824 825 826 826 827 827 828 829 830 831 832 833 834 834 834 835 836 837 838 839 839 840 841 841 842 843 843 844 845 846 846 847 848 848 849 850 851 852 853 854 854 853 854 856 858 859 859 861 863 865 866 868 869 869 870 871 871 871 871 871
820 822 824 825 826 826 827 827 828 828 829 830 831 833 834 834 835 835 836 837 838 839 840 840 841 842 842 843 843 844 845 845 846 846 847 848 849 850 850 851 852 853 854 853 853 853 855 857 858 858 859 863 866 867 868 869 869 870 871 872 872 871 871
821 822 824 825 826 826 827 827 828 828 829 830 831 833 834 835 836 836 837 838 840 840 841 842 842 843 843 844 844 845 845 846 846 847 848 849 849 850 851 851 852 853 854 853 853 854 855 856 858 858 859 860 864 867 868 869 869 870 871 871 872 872 872
821 822 823 824 825 826 826 827 828 829 830 831 832 833 834 835 837 837 838 840 841 841 842 843 843 844 845 845 845 846 846 846 847 847 848 849 850 850 851 852 853 854 854 854 854 855 856 857 858 859 859 859 861 864 867 869 870 870 871 870 871 872 872
821 822 823 824 825 826 826 827 828 829 830 831 833 834 835 836 837 838 839 841 842 843 843 844 845 845 846 846 846 847 847 847 847 848 849 849 850 851 851 852 854 855 855 855 855 856 856 857 857 858 859 859 860 861 863 867 870 870 870 870 870 871 871
821 822 823 824 825 826 827 827 828 829 831 832 833 835 836 837 838 839 840 841 842 843 844 845 846 846 847 847 847 848 848 848 849 849 850 851 851 852 853 853 854 855 856 856 856 857 857 858 858 859 860 859 859 860 860 863 867 869 869 869 869 870 871
821 823 823 825 826 827 828 828 829 830 831 833 834 835 837 838 839 840 841 842 843 844 845 846 847 847 848 848 848 849 849 850 850 851 852 852 853 854 854 854 855 856 856 857 857 858 858 859 860 860 861 860 860 861 861 862 866 868 869 869 869 870 870
822 823 824 825 826 827 829 829 830 831 832 834 835 836 838 838 840 841 842 843 843 845 846 846 847 848 848 849 849 850 850 851 851 852 852 853 854 855 855 855 856 856 857 857 858 859 859 860 860 861 861 861 861 862 862 863 865 867 869 869 869 870 870
822 823 824 825 827 828 829 830 831 831 833 834 836 837 838 839 841 842 842 843 844 845 846 847 848 848 849 849 850 850 851 851 852 852 853 854 854 855 855 855 856 856 857 858 858 859 859 860 860 861 861 861 861 862 863 863 865 867 868 869 869 869 870
822 823 824 826 827 828 829 830 831 832 833 835 836 838 839 840 841 842 843 844 845 846 846 847 848 848 849 849 850 850 851 852 852 852 853 853 854 854 855 855 856 856 857 858 858 859 860 860 860 860 861 861 861 862 863 863 864 866 867 867 868 869 869
822 823 825 826 827 828 829 830 831 833 834 835 836 838 839 840 841 842 843 844 845 846 846 847 848 848 848 849 849 850 851 851 852 852 852 853 853 854 854 855 855 856 857 857 858 859 859 860 860 860 860 861 861 862 862 863 863 865 866 866 867 868 868
822 824 825 827 828 829 829 830 832 833 834 835 836 838 839 840 841 842 843 844 845 845 846 847 847 848 848 849 849 849 850 851 851 852 852 853 853 854 854 855 855 855 856 857 857 858 859 859 859 860 860 860 861 861 862 863 863 864 865 866 866 867 867
821 823 825 826 827 828 829 831 832 833 834 835 836 837 838 840 840 841 842 843 844 845 846 846 847 847 848 848 849 849 850 851 851 852 852 852 853 854 854 854 855 855 856 856 857 857 858 858 859 860 860 860 860 861 862 863 863 864 864 864 865 866 867
821 823 825 826 827 828 829 830 831 832 833 834 835 837 837 839 840 841 842 842 843 844 845 846 846 847 848 848 848 849 849 850 851 851 852 852 853 853 853 854 854 855 855 856 857 857 857 858 859 859 860 860 860 860 861 862 863 863 864 864 864 865 865
821 823 825 826 827 828 829 830 831 832 833 833 835 835 836 838 839 840 841 842 842 843 844 845 846 846 847 847 848 848 849 850 850 851 851 852 852 853 853 853 853 854 855 855 856 856 857 857 858 859 859 860 860 860 861 861 862 862 863 863 864 864 864
821 823 824 825 827 828 829 830 830 831 832 833 833 834 835 836 837 838 840 841 842 842 843 844 844 845 845 846 846 847 848 849 849 850 850 851 851 851 851 852 852 853 853 854 855 855 856 856 857 857 858 859 859 860 860 861 861 861 862 862 863 863 864
822 823 824 825 827 828 829 830 830 831 832 832 832 833 834 835 836 837 838 839 840 840 841 842 842 843 843 844 845 846 846 847 847 847 848 848 849 849 850 850 851 851 852 852 853 854 854 855 855 856 856 857 858 859 859 860 860 860 861 861 862 862 863
823 824 825 826 827 828 829 829 829 830 830 831 832 832 833 834 835 836 837 838 839 839 839 840 840 841 841 842 843 844 844 845 845 845 846 846 847 847 848 849 849 850 851 851 852 852 853 853 854 854 855 855 856 858 858 858 859 859 859 860 861 861 862
824 825 825 826 827 828 828 829 829 829 830 830 831 832 832 833 834 835 836 837 837 837 838 838 838 839 839 840 841 841 842 843 844 844 844 845 845 846 846 847 848 848 849 849 850 850 851 851 852 853 853 853 854 855 856 856 857 857 858 858 859 860 860
825 825 825 826 827 827 828 828 829 829 829 830 830 831 832 832 833 834 835 835 836 835 836 837 837 837 837 838 838 838 839 841 842 843 843 843 844 844 844 845 846 846 847 847 848 848 849 849 850 851 851 852 852 853 853 854 855 855 856 857 858 858 859
826 826 826 826 826 826 827 827 828 828 829 830 830 830 831 832 832 833 834 834 834 834 834 835 835 836 836 836 836 837 837 838 839 840 841 841 842 842 842 843 843 844 845 845 846 847 847 847 848 849 850 850 850 850 850 851 852 853 854 855 856 857 857
825 825 826 826 826 826 827 827 827 828 828 829 829 829 830 831 831 832 833 833 833 833 833 834 834 835 835 835 835 835 835 836 836 837 838 839 840 841 841 842 842 842 842 843 844 844 845 845 846 847 848 848 849 848 849 849 850 851 853 853 854 855 856
825 824 824 825 824 825 826 826 827 828 828 828 829 828 829 829 830 830 831 832 832 831 831 832 832 833 833 834 834 834 834 834 834 834 835 837 839 840 841 842 841 840 840 841 842 842 843 844 844 845 846 847 847 847 847 848 849 850 852 852 853 854 855
827 826 826 825 825 825 826 826 827 827 827 827 828 828 828 827 828 829 829 830 830 829 829 830 830 831 831 832 832 832 832 832 832 833 834 834 836 836 837 838 839 839 839 840 841 842 843 844 843 843 844 845 846 846 846 847 848 849 851 852 852 854 854
830 830 829 829 828 827 827 827 826 826 826 826 826 826 826 826 826 826 826 827 827 827 827 827 828 828 828 829 829 829 830 830 830 831 831 832 832 833 834 835 836 837 838 838 840 843 844 843 842 841 841 842 843 844 845 846 847 849 850 851 852 853 854
832 831 831 831 830 829 828 828 827 826 826 826 825 825 825 825 824 824 824 824 824 824 824 824 825 826 826 826 826 826 827 827 827 828 829 830 830 831 832 833 834 834 835 835 837 840 841 840 839 839 839 839 841 843 844 846 847 848 849 850 851 852 853
833 832 832 831 831 831 830 829 828 827 826 826 825 824 824 824 823 823 823 822 822 821 821 821 822 822 823 823 823 823 824 824 824 825 825 826 827 828 829 830 831 832 832 832 834 836 837 837 836 836 836 838 840 841 843 845 846 847 848 850 851 852 852
832 831 831 830 830 830 830 829 829 828 827 826 825 824 823 822 822 821 822 821 820 819 819 819 819 819 819 819 820 820 820 820 821 821 821 822 823 824 825 826 827 828 829 830 832 834 835 836 835 835 835 837 838 840 842 844 845 846 848 849 850 850 851
830 830 830 829 829 829 828 828 828 827 826 825 824 823 822 821 820 819 819 819 818 817 817 816 816 816 815 816 816 816 817 817 818 818 818 819 819 820 821 823 824 825 826 829 831 833 834 835 835 835 836 837 837 839 841 842 844 846 847 849 849 850 850
829 828 828 827 827 827 827 827 826 826 825 824 823 822 821 821 819 818 816 816 815 814 814 814 813 812 811 811 812 812 813 813 814 814 815 816 816 817 819 821 823 824 824 826 829 832 834 835 834 835 836 836 837 838 840 842 844 845 847 848 848 848 849
828 828 827 827 826 826 826 826 825 825 824 823 822 821 820 820 818 816 815 813 812 811 810 810 809 809 808 807 807 808 809 809 810 811 813 813 814 815 817 819 821 822 823 825 828 831 833 834 834 835 836 837 838 839 840 842 844 845 846 847 847 847 848